Vertical_Velocity
-1 1 0 -1 0 0 -1 -0 0 -0 -1 -0 -0 0 1 1 0 -0 -0 -0 -0 -0 0 0 -0 1 0 0 1 1 1 0 0 -0 1 1 0 0 1 -0 -1 -1 -0
0 -1 -2 0 1 1 1 1 -0 0 -1 -1 -1 0 0 0 0 0 -0 -1 -1 -0 -0 -0 1 1 0 0 0 -0 -0 0 0 0 0 0 1 1 0 0 1 1 1
0 1 1 -0 0 0 0 -1 -0 -0 0 -1 -0 0 1 -0 -0 0 0 1 0 -0 -1 -1 -0 0 1 0 -1 0 0 -0 0 0 -1 -2 -0 0 1 0 0 1 1
-1 0 -0 -1 -0 -1 1 -0 -2 -1 -0 -1 -0 -0 -0 0 0 -0 -0 -1 -1 -1 -1 -1 -1 -1 -0 -0 -0 -1 -0 -0 0 1 1 0 -1 0 0 1 0 1 1
1 0 0 -0 0 0 -0 1 0 -1 -1 -1 0 -1 1 -1 0 1 0 1 -0 -0 -1 -2 -1 -1 -1 -2 -1 -2 -2 -1 -1 -0 -0 0 0 -1 -2 -1 -1 0 -0
2 1 -1 -0 1 -0 -1 0 0 1 -1 -1 -1 -1 -1 1 -0 -1 0 -0 -0 -1 -1 -1 -1 -1 -1 -1 -1 -1 -1 -1 -1 -1 0 0 -1 -2 -3 -2 -2 -0 0
1 -0 -1 1 0 -1 0 -0 -0 0 -0 -1 -0 -0 -2 0 -0 -0 -1 -1 -0 -2 -2 -1 0 -1 -1 -1 -1 -1 -1 -1 -0 -0 -1 -1 -0 0 1 1 -2 -3 -3
1 -1 -0 0 -1 -1 -2 -0 -2 0 1 -0 0 0 -1 1 -0 -2 1 -2 -1 -1 -2 -1 -1 -1 -1 -1 -0 -0 -1 -2 -2 -2 -2 -1 -1 -1 1 3 2 0 -0
-0 -0 0 -0 -0 -0 -0 -1 -1 0 0 1 -0 1 -1 -0 1 -1 0 -0 -0 -0 -1 -1 -2 -2 -0 -0 -1 -1 -0 -1 0 0 -0 -1 -3 -1 -2 -1 2 4 1
0 -0 -0 1 0 -1 -1 -1 -1 -1 -1 -0 -0 -0 1 0 -1 -1 -0 -0 -1 0 0 0 -1 -1 -1 -1 -1 -2 -1 -1 -3 -2 -0 -2 -1 -1 0 -1 -0 2 1
0 0 1 -0 -1 -1 -2 -1 -1 -2 -1 -1 -0 1 2 0 -1 -1 -1 -1 -1 -1 -1 -2 -1 -1 -2 -1 -1 0 -3 -3 -1 -1 -2 -2 -1 -1 -2 -3 -3 -2 -2
2 0 -0 -0 -2 -2 -2 -1 -1 0 -1 -1 1 1 -0 -1 -0 1 0 -0 -2 -1 -1 -2 -1 -1 -2 -0 -3 -3 -2 -2 -2 -4 -3 -3 -2 -2 -5 -5 -5 -3 -1
-0 0 -1 -1 -2 -2 -2 -2 -1 -0 -0 -1 1 -0 -1 -1 -1 -1 -0 -0 -2 -1 -2 -2 -2 -1 -2 -6 -1 -2 -3 -3 -4 -3 -2 -2 -3 -4 -2 -2 -2 -3 -4
0 1 -0 -1 -1 -1 -2 -4 -3 -1 1 1 -1 -2 -1 -0 1 -0 -1 -2 -2 -2 -3 -3 -1 -2 -1 1 -2 -2 -4 -4 -2 -1 -2 -0 -2 -2 -5 -3 -1 -1 -1
-2 -0 1 -0 0 -0 -3 -3 -3 -1 0 1 -1 -1 -1 -0 1 -0 -2 -3 -2 -3 -2 -2 -3 -1 -2 -3 -3 -4 -3 -3 -2 -1 -2 -2 -1 -2 -3 -2 -3 -2 -1
-1 -2 -3 -3 -1 -1 -5 -3 -1 -1 -0 -0 -1 -1 -0 0 -1 -2 -1 -1 -1 -2 -3 -2 -2 -1 -1 -2 -2 -4 -3 -3 -3 -2 -3 -2 -2 -1 -3 -3 -1 -5 -3
-3 -3 -1 -6 -0 -0 -1 -1 -0 -0 -0 -1 -0 0 -2 -1 -2 -2 -1 -1 -2 -2 -2 -4 -1 1 -2 -1 0 -3 -2 -2 -4 -3 -1 -1 -2 -2 -2 -4 -4 -3 -4
-2 -1 -1 -4 -0 -0 -2 -2 -0 -1 -1 -1 -1 -1 -1 -2 -1 -2 -2 -2 -3 -3 -2 1 -4 -3 2 -2 -4 -2 -3 -2 -4 -3 -2 -0 -2 -2 -2 -2 -3 -3 -3
-1 0 2 1 1 -1 -1 -1 -0 -1 -2 -0 -1 -1 -0 -2 -1 -2 -3 -2 -1 -1 -1 -2 1 -4 -5 -1 -3 -3 -4 -2 -3 -3 -3 -0 0 -1 -2 -1 -0 -2 -2
4 0 7 -2 -3 -2 -2 -2 -1 -0 -2 -1 -0 -1 -1 -2 -2 -1 -1 -0 -0 0 -1 -3 -3 0 -2 -3 0 -3 -2 -2 -1 -2 -2 -3 -1 -2 -2 -3 -3 -2 -0
2 19 -1 -3 0 1 -2 -3 -2 -0 -1 -1 0 -1 -1 -1 -0 -0 -1 -1 -2 -2 -1 -3 -5 -4 -2 -4 -3 0 2 -1 -2 -2 -2 -4 -2 -1 -2 -1 -1 -1 -2
1 3 1 2 1 -1 -0 -1 -1 -0 1 0 0 -1 -1 1 -0 -1 -1 -2 -2 -0 1 1 -0 -3 -3 -1 -1 -2 -3 -6 1 1 -1 -1 -1 -1 -3 -2 -0 -1 -2
7 -0 6 1 -3 -1 0 0 1 1 0 0 0 0 0 0 -1 -1 -2 -1 1 0 -0 -0 -1 -1 -4 -3 -1 -2 6 0 -3 -7 -1 0 -1 -1 -2 -3 -1 -1 -1
-7 1 1 -1 -2 -3 4 -1 1 -1 -1 -0 1 1 -2 -1 -2 -1 0 -0 -1 -0 -1 -1 -2 -3 -2 -3 -1 -1 -2 1 4 6 -14 1 -2 0 -2 -4 -6 -3 -1
-1 -4 -1 1 -0 -0 -0 -0 1 -0 0 -1 -2 -0 1 -0 0 -1 -1 -0 -1 -1 -1 -2 -2 -2 0 -3 -2 -1 -3 -2 -1 5 10 -17 -3 3 4 8 2 -8 -3
4 -3 -0 -3 -0 0 1 2 1 -1 -2 -1 -1 0 0 1 1 0 0 -1 -1 -1 -2 -3 -3 -3 -2 -2 -1 -2 -1 -2 -3 -5 7 3 1 -13 -8 -6 5 7 0
Height
5892 5892 5893 5894 5895 5895 5895 5895 5896 5896 5896 5897 5897 5897 5896 5895 5894 5894 5893 5893 5892 5892 5891 5889 5888 5886 5885 5883 5881 5880 5879 5877 5876 5874 5873 5871 5870 5869 5867 5866 5865 5863 5862
5891 5892 5893 5893 5895 5895 5895 5895 5895 5895 5896 5896 5896 5896 5896 5895 5894 5894 5893 5893 5892 5891 5890 5888 5887 5886 5884 5882 5881 5879 5877 5876 5874 5873 5872 5870 5868 5866 5864 5863 5861 5859 5858
5891 5892 5892 5893 5894 5894 5895 5895 5895 5895 5895 5896 5896 5896 5895 5895 5894 5893 5893 5892 5891 5890 5889 5888 5886 5885 5884 5882 5881 5879 5877 5876 5874 5872 5870 5868 5867 5865 5862 5860 5858 5857 5855
5891 5892 5892 5893 5894 5894 5894 5894 5894 5895 5895 5895 5895 5895 5894 5894 5894 5893 5892 5891 5891 5890 5888 5887 5886 5885 5883 5881 5879 5878 5876 5875 5873 5871 5869 5866 5863 5861 5859 5857 5854 5852 5850
5890 5891 5892 5893 5893 5893 5893 5894 5894 5894 5894 5894 5894 5894 5894 5893 5893 5892 5892 5890 5889 5889 5888 5887 5885 5884 5882 5880 5878 5875 5873 5871 5869 5867 5865 5863 5860 5856 5854 5852 5850 5847 5845
5889 5890 5891 5892 5892 5892 5892 5893 5893 5892 5892 5893 5893 5892 5893 5892 5892 5891 5891 5890 5889 5888 5887 5885 5883 5882 5880 5878 5875 5873 5871 5868 5866 5863 5861 5858 5855 5852 5849 5845 5843 5840 5838
5887 5888 5889 5890 5891 5891 5891 5892 5891 5891 5891 5891 5891 5891 5891 5891 5891 5890 5889 5888 5887 5886 5885 5883 5881 5879 5877 5875 5872 5870 5867 5865 5862 5859 5855 5852 5848 5845 5842 5838 5834 5831 5828
5885 5886 5887 5888 5889 5890 5890 5890 5890 5889 5889 5889 5890 5889 5889 5889 5889 5889 5888 5886 5885 5884 5883 5881 5879 5876 5874 5871 5869 5867 5864 5861 5858 5854 5850 5845 5841 5837 5833 5828 5823 5820 5817
5883 5884 5885 5886 5886 5887 5887 5887 5887 5887 5887 5888 5888 5888 5887 5887 5886 5886 5885 5884 5883 5881 5880 5878 5875 5873 5871 5868 5866 5863 5860 5856 5852 5847 5842 5837 5832 5827 5823 5818 5812 5808 5806
5880 5882 5883 5883 5884 5885 5885 5885 5885 5885 5885 5886 5886 5886 5885 5885 5884 5883 5882 5881 5880 5878 5877 5875 5872 5870 5867 5864 5861 5857 5854 5850 5846 5841 5835 5828 5823 5818 5813 5807 5802 5798 5795
5878 5879 5880 5881 5882 5883 5884 5884 5883 5883 5883 5883 5884 5884 5883 5883 5882 5880 5879 5878 5877 5875 5873 5871 5869 5866 5863 5860 5856 5853 5848 5844 5838 5832 5826 5821 5815 5809 5804 5798 5794 5791 5788
5875 5877 5878 5878 5880 5881 5881 5881 5881 5881 5881 5881 5881 5881 5881 5880 5879 5877 5876 5874 5873 5871 5869 5867 5865 5862 5859 5855 5851 5847 5842 5836 5830 5824 5819 5814 5808 5803 5798 5794 5791 5788 5784
5872 5874 5875 5876 5877 5878 5878 5879 5879 5878 5878 5878 5878 5878 5877 5876 5875 5874 5872 5871 5869 5867 5865 5863 5860 5857 5854 5850 5846 5840 5835 5829 5823 5818 5814 5809 5803 5798 5794 5791 5787 5783 5779
5869 5870 5872 5873 5873 5875 5876 5876 5875 5875 5875 5875 5874 5874 5874 5873 5872 5870 5869 5867 5865 5863 5861 5858 5855 5852 5849 5845 5840 5834 5828 5823 5818 5814 5809 5804 5799 5795 5791 5788 5783 5779 5775
5862 5865 5867 5868 5870 5871 5872 5873 5872 5871 5871 5871 5870 5870 5870 5869 5868 5867 5865 5863 5861 5859 5856 5853 5851 5848 5844 5839 5834 5828 5823 5817 5814 5810 5804 5800 5795 5791 5786 5783 5779 5776 5772
5856 5860 5862 5864 5865 5868 5868 5868 5868 5868 5867 5867 5866 5865 5865 5864 5864 5863 5861 5859 5857 5855 5852 5849 5846 5842 5839 5834 5829 5823 5818 5814 5810 5806 5800 5796 5791 5787 5782 5778 5775 5771 5767
5850 5854 5857 5860 5862 5863 5864 5863 5863 5863 5863 5863 5861 5861 5860 5860 5859 5858 5857 5855 5853 5850 5847 5844 5840 5837 5833 5828 5823 5818 5814 5810 5807 5802 5796 5792 5787 5782 5779 5774 5771 5768 5764
5844 5847 5851 5854 5857 5859 5858 5858 5858 5858 5858 5858 5857 5856 5855 5855 5854 5853 5852 5850 5848 5845 5842 5839 5835 5831 5827 5822 5818 5813 5809 5806 5802 5798 5793 5788 5783 5778 5775 5770 5767 5764 5760
5836 5840 5844 5847 5850 5851 5852 5853 5853 5853 5853 5852 5852 5851 5850 5850 5849 5848 5846 5844 5842 5839 5836 5833 5830 5826 5821 5817 5812 5809 5805 5802 5798 5793 5789 5783 5779 5774 5771 5767 5763 5761 5757
5827 5833 5837 5840 5843 5844 5846 5848 5848 5847 5847 5847 5847 5846 5845 5844 5843 5841 5840 5838 5836 5833 5830 5826 5823 5819 5815 5811 5807 5804 5801 5797 5793 5788 5784 5780 5775 5770 5767 5763 5759 5756 5754
5820 5825 5829 5833 5836 5838 5840 5842 5842 5842 5841 5841 5841 5840 5839 5837 5836 5835 5834 5832 5829 5826 5823 5820 5816 5812 5808 5804 5801 5798 5794 5791 5787 5783 5779 5775 5771 5766 5762 5759 5756 5753 5749
5816 5818 5824 5827 5830 5832 5834 5835 5835 5835 5835 5835 5834 5833 5832 5831 5829 5828 5826 5823 5821 5819 5816 5813 5809 5806 5803 5799 5796 5792 5788 5785 5781 5778 5774 5771 5767 5763 5759 5755 5752 5748 5745
5810 5814 5820 5822 5823 5824 5827 5828 5828 5828 5829 5828 5827 5826 5825 5823 5821 5819 5817 5815 5813 5811 5808 5805 5802 5799 5796 5792 5789 5786 5783 5779 5775 5772 5769 5766 5762 5758 5755 5751 5748 5745 5742
5806 5811 5813 5814 5814 5817 5820 5821 5822 5822 5821 5821 5820 5818 5817 5815 5813 5811 5809 5807 5804 5802 5800 5797 5794 5791 5787 5784 5780 5777 5774 5772 5769 5767 5763 5760 5757 5754 5750 5747 5744 5740 5738
5801 5805 5806 5809 5811 5812 5813 5814 5814 5814 5814 5812 5811 5809 5808 5806 5804 5802 5799 5797 5795 5792 5790 5788 5785 5782 5778 5774 5771 5769 5766 5764 5762 5760 5757 5753 5750 5748 5746 5742 5738 5736 5732
5794 5797 5801 5802 5803 5804 5805 5805 5805 5806 5805 5803 5802 5800 5798 5796 5794 5792 5790 5788 5785 5783 5781 5778 5775 5771 5767 5764 5762 5759 5757 5755 5754 5752 5750 5746 5743 5739 5737 5736 5734 5729 5726